Terminal Aerodrome Forecast
Issued by NWS Cleveland, OH

Home | Current Version | Previous Version | Graphics & Text | Print | Product List | Glossary On
Versions: 1 2 3 4 5 6 7 8 9 10 11 12 13 14 15 16 17 18 19 20 21 22 23 24 25 26
000
FTUS41 KCLE 200400 AAB
TAFCAK
TAF AMD
KCAK 200425Z 2004/2024 22003KT 6SM BR OVC050
      TEMPO 2004/2006 4SM -TSRA BKN025CB OVC050
     FM200800 VRB03KT 4SM BR BKN035
      TEMPO 2010/2013 2SM BR
     FM201500 27010KT P6SM BKN050=

USA.gov is the U.S. government's official web portal to all federal, state and local government web resources and services.